QPF
0.00 0.01 0.01 0.00 0.00 0.00 0.00 0.01 0.01 0.01 0.01 0.03 0.08 0.05 0.05 0.03 0.02 0.02 0.02 0.01 0.01 0.01 0.01 0.02 0.03 0.02 0.02 0.02 0.04 0.07 0.06 0.06 0.06 0.03 0.02 0.01 0.01 0.01 0.01 0.01 0.01 0.02 0.03 0.03
0.00 0.00 0.01 0.00 0.00 0.00 0.00 0.00 0.00 0.00 0.00 0.01 0.02 0.02 0.01 0.01 0.02 0.02 0.02 0.01 0.01 0.01 0.01 0.02 0.02 0.02 0.01 0.03 0.05 0.06 0.05 0.03 0.03 0.02 0.01 0.01 0.01 0.01 0.02 0.02 0.02 0.02 0.02 0.03
0.00 0.00 0.00 0.00 0.00 0.00 0.00 0.00 0.00 0.00 0.00 0.00 0.01 0.01 0.01 0.01 0.03 0.01 0.01 0.01 0.01 0.02 0.03 0.03 0.03 0.03 0.03 0.04 0.06 0.06 0.04 0.03 0.03 0.02 0.02 0.02 0.02 0.02 0.02 0.02 0.02 0.02 0.02 0.03
0.00 0.00 0.00 0.00 0.01 0.00 0.00 0.00 0.00 0.00 0.00 0.00 0.01 0.01 0.01 0.01 0.03 0.02 0.01 0.01 0.01 0.02 0.02 0.03 0.03 0.06 0.08 0.06 0.06 0.06 0.06 0.05 0.05 0.05 0.04 0.03 0.03 0.03 0.03 0.03 0.02 0.02 0.02 0.02
0.00 0.01 0.01 0.00 0.00 0.00 0.00 0.00 0.00 0.01 0.01 0.01 0.01 0.01 0.01 0.01 0.01 0.01 0.01 0.01 0.01 0.01 0.02 0.02 0.03 0.04 0.05 0.04 0.04 0.04 0.04 0.04 0.03 0.02 0.04 0.05 0.04 0.03 0.03 0.03 0.02 0.02 0.03 0.02
0.00 0.01 0.01 0.00 0.00 0.01 0.01 0.01 0.01 0.01 0.01 0.01 0.01 0.02 0.03 0.02 0.01 0.01 0.00 0.00 0.01 0.01 0.02 0.02 0.01 0.02 0.01 0.02 0.02 0.02 0.01 0.01 0.02 0.02 0.03 0.03 0.03 0.03 0.03 0.04 0.03 0.03 0.02 0.03
0.01 0.01 0.01 0.01 0.01 0.01 0.02 0.02 0.02 0.02 0.02 0.02 0.02 0.02 0.03 0.03 0.02 0.01 0.01 0.01 0.00 0.00 0.01 0.02 0.01 0.01 0.02 0.02 0.02 0.02 0.02 0.02 0.03 0.03 0.03 0.02 0.02 0.02 0.03 0.03 0.03 0.03 0.02 0.02
0.01 0.01 0.02 0.01 0.01 0.02 0.03 0.04 0.03 0.02 0.03 0.04 0.03 0.02 0.02 0.02 0.01 0.01 0.01 0.00 0.00 0.00 0.00 0.01 0.02 0.02 0.03 0.04 0.04 0.03 0.03 0.03 0.03 0.03 0.02 0.02 0.02 0.03 0.03 0.03 0.03 0.03 0.02 0.02
0.01 0.02 0.02 0.02 0.02 0.02 0.03 0.04 0.05 0.05 0.04 0.03 0.03 0.02 0.02 0.01 0.01 0.01 0.00 0.00 0.00 0.00 0.00 0.01 0.01 0.01 0.02 0.02 0.02 0.02 0.03 0.04 0.04 0.04 0.04 0.04 0.04 0.04 0.04 0.05 0.05 0.04 0.04 0.04
0.01 0.02 0.02 0.04 0.04 0.04 0.04 0.03 0.03 0.03 0.03 0.02 0.02 0.03 0.02 0.01 0.01 0.01 0.00 0.00 0.00 0.00 0.00 0.01 0.01 0.01 0.01 0.01 0.01 0.01 0.02 0.03 0.06 0.07 0.08 0.08 0.06 0.08 0.08 0.09 0.10 0.09 0.06 0.05
0.02 0.02 0.02 0.03 0.03 0.03 0.02 0.02 0.01 0.01 0.01 0.01 0.01 0.02 0.02 0.02 0.02 0.01 0.01 0.01 0.01 0.00 0.00 0.01 0.01 0.01 0.01 0.01 0.01 0.01 0.01 0.03 0.04 0.06 0.08 0.09 0.10 0.10 0.11 0.10 0.12 0.11 0.06 0.03
0.03 0.02 0.01 0.02 0.02 0.02 0.02 0.01 0.01 0.01 0.02 0.01 0.01 0.02 0.04 0.04 0.02 0.02 0.01 0.01 0.01 0.01 0.01 0.01 0.01 0.01 0.01 0.01 0.01 0.02 0.02 0.03 0.04 0.04 0.06 0.08 0.08 0.09 0.08 0.08 0.07 0.04 0.02 0.01
0.01 0.01 0.01 0.01 0.02 0.02 0.02 0.02 0.01 0.01 0.01 0.02 0.03 0.05 0.06 0.06 0.03 0.02 0.01 0.01 0.01 0.01 0.00 0.01 0.01 0.01 0.01 0.02 0.02 0.02 0.02 0.04 0.05 0.04 0.04 0.03 0.04 0.05 0.08 0.07 0.07 0.05 0.02 0.01
0.01 0.01 0.01 0.01 0.02 0.03 0.02 0.02 0.01 0.02 0.02 0.02 0.02 0.03 0.02 0.03 0.03 0.01 0.01 0.01 0.00 0.00 0.00 0.01 0.00 0.01 0.02 0.03 0.02 0.02 0.02 0.03 0.05 0.04 0.03 0.03 0.03 0.02 0.02 0.03 0.04 0.04 0.02 0.01
0.01 0.01 0.01 0.01 0.01 0.02 0.02 0.02 0.02 0.03 0.05 0.05 0.03 0.03 0.02 0.01 0.01 0.01 0.01 0.00 0.00 0.01 0.01 0.01 0.01 0.01 0.01 0.01 0.01 0.02 0.03 0.02 0.03 0.04 0.03 0.04 0.04 0.04 0.03 0.02 0.02 0.02 0.02 0.02
0.04 0.03 0.02 0.02 0.02 0.02 0.01 0.01 0.01 0.03 0.07 0.11 0.10 0.07 0.03 0.02 0.01 0.01 0.01 0.01 0.01 0.01 0.01 0.01 0.01 0.01 0.01 0.01 0.01 0.01 0.02 0.03 0.03 0.04 0.04 0.04 0.04 0.05 0.05 0.04 0.04 0.03 0.03 0.03
0.10 0.09 0.06 0.04 0.03 0.02 0.01 0.02 0.03 0.04 0.06 0.07 0.06 0.08 0.05 0.02 0.01 0.01 0.01 0.01 0.01 0.01 0.01 0.01 0.02 0.01 0.01 0.01 0.01 0.01 0.01 0.02 0.03 0.03 0.04 0.04 0.04 0.03 0.04 0.05 0.04 0.04 0.05 0.05
0.09 0.08 0.06 0.03 0.02 0.01 0.01 0.02 0.02 0.01 0.01 0.02 0.03 0.05 0.07 0.03 0.02 0.01 0.01 0.01 0.02 0.02 0.02 0.03 0.03 0.02 0.02 0.02 0.01 0.02 0.02 0.03 0.03 0.04 0.05 0.06 0.06 0.06 0.05 0.04 0.04 0.05 0.06 0.06
0.06 0.07 0.08 0.04 0.03 0.03 0.02 0.01 0.01 0.01 0.01 0.02 0.05 0.05 0.05 0.05 0.03 0.02 0.02 0.02 0.02 0.03 0.03 0.04 0.04 0.04 0.03 0.02 0.02 0.02 0.04 0.04 0.04 0.05 0.06 0.06 0.06 0.05 0.06 0.05 0.05 0.05 0.04 0.05
0.05 0.06 0.08 0.06 0.05 0.05 0.04 0.03 0.02 0.01 0.01 0.02 0.06 0.07 0.09 0.10 0.08 0.05 0.03 0.02 0.02 0.03 0.03 0.04 0.04 0.04 0.03 0.03 0.03 0.03 0.03 0.03 0.03 0.03 0.05 0.07 0.07 0.06 0.05 0.04 0.05 0.05 0.05 0.05
0.05 0.05 0.08 0.10 0.07 0.06 0.06 0.06 0.04 0.02 0.02 0.03 0.05 0.10 0.11 0.11 0.10 0.07 0.05 0.03 0.02 0.02 0.02 0.03 0.03 0.03 0.03 0.04 0.04 0.04 0.04 0.04 0.03 0.04 0.03 0.03 0.04 0.04 0.04 0.04 0.04 0.04 0.04 0.05
0.05 0.05 0.07 0.12 0.09 0.08 0.10 0.07 0.04 0.02 0.03 0.04 0.05 0.06 0.08 0.08 0.08 0.07 0.07 0.04 0.03 0.03 0.02 0.02 0.03 0.03 0.03 0.04 0.05 0.06 0.06 0.06 0.05 0.04 0.04 0.03 0.02 0.03 0.03 0.03 0.03 0.04 0.04 0.04
0.08 0.06 0.06 0.08 0.09 0.10 0.09 0.07 0.04 0.04 0.04 0.04 0.04 0.04 0.04 0.03 0.03 0.03 0.05 0.06 0.04 0.04 0.05 0.05 0.04 0.04 0.03 0.03 0.03 0.04 0.05 0.05 0.05 0.05 0.04 0.03 0.03 0.03 0.02 0.02 0.03 0.03 0.03 0.03
0.08 0.06 0.04 0.06 0.09 0.09 0.07 0.05 0.04 0.04 0.03 0.03 0.03 0.03 0.03 0.02 0.02 0.02 0.02 0.05 0.08 0.09 0.08 0.07 0.07 0.05 0.04 0.02 0.03 0.03 0.03 0.03 0.03 0.03 0.03 0.03 0.02 0.02 0.02 0.02 0.02 0.03 0.03 0.03
0.04 0.03 0.03 0.06 0.08 0.07 0.04 0.02 0.02 0.02 0.02 0.02 0.02 0.02 0.02 0.02 0.02 0.03 0.02 0.04 0.06 0.06 0.06 0.06 0.06 0.05 0.04 0.03 0.03 0.03 0.03 0.03 0.03 0.03 0.03 0.03 0.04 0.04 0.03 0.03 0.03 0.04 0.04 0.05
0.03 0.02 0.02 0.02 0.03 0.03 0.02 0.02 0.02 0.02 0.02 0.02 0.01 0.01 0.02 0.02 0.03 0.04 0.04 0.04 0.05 0.04 0.04 0.04 0.03 0.03 0.03 0.02 0.02 0.02 0.02 0.02 0.02 0.02 0.03 0.04 0.04 0.04 0.04 0.04 0.04 0.05 0.06 0.08
0.03 0.03 0.02 0.02 0.01 0.02 0.03 0.03 0.03 0.02 0.03 0.02 0.02 0.02 0.03 0.04 0.04 0.05 0.04 0.03 0.03 0.03 0.03 0.03 0.02 0.02 0.03 0.03 0.03 0.03 0.04 0.04 0.03 0.03 0.03 0.03 0.03 0.03 0.04 0.03 0.03 0.05 0.07 0.08
MSLP
1013.57 1013.92 1014.23 1014.48 1014.62 1014.61 1014.43 1014.06 1013.53 1012.87 1012.13 1011.38 1010.71 1010.15 1009.76 1009.54 1009.50 1009.59 1009.77 1010.01 1010.24 1010.47 1010.66 1010.83 1011.01 1011.21 1011.45 1011.75 1012.10 1012.49 1012.88 1013.26 1013.59 1013.85 1014.05 1014.18 1014.26 1014.31 1014.34 1014.37 1014.42 1014.47 1014.53 1014.59
1014.35 1014.55 1014.63 1014.59 1014.41 1014.09 1013.65 1013.11 1012.50 1011.87 1011.26 1010.71 1010.26 1009.94 1009.75 1009.68 1009.69 1009.76 1009.84 1009.93 1010.00 1010.04 1010.08 1010.14 1010.24 1010.41 1010.66 1010.98 1011.37 1011.80 1012.22 1012.63 1012.98 1013.26 1013.47 1013.61 1013.71 1013.77 1013.83 1013.88 1013.94 1014.00 1014.06 1014.10
1015.15 1015.22 1015.11 1014.84 1014.41 1013.86 1013.22 1012.56 1011.90 1011.31 1010.82 1010.44 1010.20 1010.08 1010.05 1010.08 1010.13 1010.17 1010.18 1010.13 1010.04 1009.93 1009.82 1009.77 1009.78 1009.89 1010.10 1010.40 1010.77 1011.18 1011.58 1011.96 1012.27 1012.53 1012.71 1012.85 1012.95 1013.03 1013.11 1013.19 1013.28 1013.36 1013.44 1013.49
1015.88 1015.85 1015.60 1015.16 1014.56 1013.85 1013.10 1012.36 1011.70 1011.16 1010.77 1010.54 1010.46 1010.49 1010.58 1010.70 1010.78 1010.80 1010.74 1010.60 1010.39 1010.16 1009.95 1009.79 1009.72 1009.75 1009.89 1010.13 1010.43 1010.75 1011.07 1011.36 1011.59 1011.76 1011.89 1011.98 1012.06 1012.14 1012.24 1012.35 1012.47 1012.58 1012.69 1012.76
1016.43 1016.31 1015.97 1015.43 1014.73 1013.94 1013.14 1012.39 1011.75 1011.27 1010.97 1010.85 1010.88 1011.02 1011.21 1011.38 1011.49 1011.51 1011.42 1011.22 1010.96 1010.66 1010.38 1010.16 1010.02 1009.98 1010.05 1010.19 1010.38 1010.58 1010.77 1010.92 1011.03 1011.09 1011.12 1011.14 1011.17 1011.23 1011.32 1011.44 1011.58 1011.72 1011.85 1011.94
1016.68 1016.49 1016.09 1015.51 1014.78 1013.98 1013.19 1012.46 1011.88 1011.46 1011.24 1011.21 1011.32 1011.53 1011.77 1011.99 1012.12 1012.15 1012.06 1011.86 1011.58 1011.27 1010.97 1010.73 1010.55 1010.47 1010.45 1010.50 1010.57 1010.64 1010.68 1010.68 1010.64 1010.56 1010.48 1010.41 1010.37 1010.39 1010.45 1010.56 1010.69 1010.83 1010.95 1011.04
1016.54 1016.30 1015.87 1015.29 1014.59 1013.84 1013.11 1012.46 1011.95 1011.61 1011.46 1011.48 1011.64 1011.89 1012.16 1012.39 1012.54 1012.59 1012.52 1012.35 1012.10 1011.82 1011.55 1011.31 1011.14 1011.02 1010.96 1010.93 1010.90 1010.85 1010.75 1010.61 1010.43 1010.23 1010.03 1009.86 1009.74 1009.68 1009.69 1009.74 1009.84 1009.94 1010.02 1010.08
1016.00 1015.72 1015.30 1014.75 1014.12 1013.47 1012.84 1012.29 1011.87 1011.62 1011.53 1011.59 1011.77 1012.03 1012.29 1012.53 1012.69 1012.75 1012.71 1012.57 1012.38 1012.16 1011.94 1011.75 1011.59 1011.48 1011.40 1011.32 1011.22 1011.08 1010.89 1010.65 1010.36 1010.06 1009.76 1009.50 1009.29 1009.15 1009.07 1009.04 1009.05 1009.08 1009.09 1009.08
1015.12 1014.81 1014.42 1013.94 1013.41 1012.88 1012.38 1011.96 1011.65 1011.47 1011.44 1011.53 1011.71 1011.95 1012.20 1012.41 1012.56 1012.62 1012.60 1012.51 1012.37 1012.21 1012.05 1011.91 1011.80 1011.71 1011.64 1011.54 1011.42 1011.24 1011.00 1010.70 1010.36 1009.99 1009.63 1009.29 1009.01 1008.77 1008.60 1008.46 1008.36 1008.27 1008.18 1008.07
1014.02 1013.71 1013.35 1012.96 1012.55 1012.15 1011.80 1011.51 1011.32 1011.23 1011.24 1011.35 1011.52 1011.73 1011.94 1012.11 1012.23 1012.28 1012.27 1012.20 1012.09 1011.98 1011.87 1011.78 1011.72 1011.66 1011.61 1011.53 1011.41 1011.24 1011.00 1010.70 1010.35 1009.96 1009.57 1009.19 1008.84 1008.52 1008.24 1007.99 1007.77 1007.54 1007.32 1007.10
1012.86 1012.55 1012.25 1011.95 1011.67 1011.41 1011.20 1011.04 1010.96 1010.95 1011.00 1011.12 1011.28 1011.45 1011.61 1011.74 1011.81 1011.83 1011.81 1011.74 1011.65 1011.56 1011.48 1011.42 1011.38 1011.35 1011.33 1011.28 1011.19 1011.05 1010.84 1010.58 1010.26 1009.90 1009.51 1009.12 1008.72 1008.34 1007.97 1007.61 1007.25 1006.90 1006.55 1006.21
1011.77 1011.49 1011.24 1011.03 1010.87 1010.74 1010.66 1010.63 1010.64 1010.70 1010.80 1010.93 1011.07 1011.20 1011.31 1011.39 1011.42 1011.40 1011.34 1011.26 1011.16 1011.06 1010.98 1010.92 1010.88 1010.87 1010.85 1010.83 1010.77 1010.67 1010.52 1010.31 1010.04 1009.73 1009.38 1008.99 1008.59 1008.16 1007.72 1007.27 1006.81 1006.35 1005.89 1005.45
1010.84 1010.58 1010.40 1010.28 1010.21 1010.20 1010.24 1010.30 1010.40 1010.52 1010.65 1010.78 1010.91 1011.01 1011.08 1011.12 1011.10 1011.05 1010.96 1010.84 1010.72 1010.59 1010.48 1010.40 1010.34 1010.30 1010.28 1010.25 1010.21 1010.14 1010.03 1009.88 1009.68 1009.42 1009.11 1008.76 1008.36 1007.92 1007.45 1006.94 1006.41 1005.87 1005.33 1004.82
1010.05 1009.84 1009.71 1009.67 1009.70 1009.78 1009.90 1010.04 1010.20 1010.36 1010.52 1010.66 1010.78 1010.87 1010.91 1010.92 1010.88 1010.80 1010.68 1010.53 1010.37 1010.20 1010.05 1009.92 1009.81 1009.72 1009.66 1009.61 1009.56 1009.50 1009.42 1009.30 1009.15 1008.94 1008.69 1008.37 1008.00 1007.57 1007.09 1006.57 1006.01 1005.43 1004.86 1004.31
1009.36 1009.19 1009.13 1009.16 1009.26 1009.42 1009.60 1009.80 1010.00 1010.19 1010.37 1010.51 1010.63 1010.71 1010.74 1010.74 1010.68 1010.58 1010.45 1010.28 1010.08 1009.88 1009.67 1009.48 1009.31 1009.16 1009.03 1008.93 1008.84 1008.76 1008.68 1008.58 1008.45 1008.29 1008.07 1007.80 1007.47 1007.07 1006.62 1006.11 1005.56 1004.99 1004.43 1003.88
1008.66 1008.56 1008.57 1008.67 1008.84 1009.05 1009.28 1009.52 1009.74 1009.94 1010.12 1010.27 1010.38 1010.46 1010.49 1010.48 1010.43 1010.33 1010.19 1010.01 1009.79 1009.55 1009.30 1009.04 1008.80 1008.57 1008.37 1008.20 1008.06 1007.94 1007.83 1007.72 1007.60 1007.46 1007.28 1007.05 1006.76 1006.41 1006.00 1005.54 1005.04 1004.51 1003.97 1003.45
1007.91 1007.89 1007.98 1008.15 1008.37 1008.63 1008.89 1009.14 1009.37 1009.57 1009.75 1009.88 1009.99 1010.06 1010.09 1010.09 1010.04 1009.95 1009.81 1009.63 1009.39 1009.13 1008.84 1008.53 1008.22 1007.93 1007.66 1007.41 1007.21 1007.03 1006.88 1006.75 1006.63 1006.49 1006.33 1006.14 1005.89 1005.60 1005.25 1004.85 1004.40 1003.93 1003.45 1002.97
1007.09 1007.16 1007.34 1007.58 1007.85 1008.14 1008.42 1008.68 1008.90 1009.09 1009.24 1009.35 1009.44 1009.49 1009.52 1009.51 1009.47 1009.38 1009.24 1009.06 1008.82 1008.54 1008.22 1007.88 1007.52 1007.18 1006.85 1006.55 1006.28 1006.06 1005.86 1005.70 1005.56 1005.42 1005.28 1005.10 1004.90 1004.65 1004.36 1004.02 1003.65 1003.24 1002.82 1002.39
1006.26 1006.43 1006.69 1006.99 1007.32 1007.63 1007.92 1008.16 1008.36 1008.51 1008.63 1008.71 1008.75 1008.78 1008.78 1008.76 1008.70 1008.61 1008.47 1008.28 1008.04 1007.75 1007.41 1007.05 1006.67 1006.29 1005.93 1005.58 1005.28 1005.02 1004.79 1004.60 1004.44 1004.30 1004.15 1003.99 1003.82 1003.61 1003.36 1003.08 1002.77 1002.42 1002.06 1001.67
1005.53 1005.79 1006.12 1006.47 1006.82 1007.15 1007.42 1007.64 1007.81 1007.92 1007.98 1008.01 1008.01 1007.98 1007.94 1007.88 1007.80 1007.68 1007.52 1007.32 1007.07 1006.77 1006.43 1006.06 1005.68 1005.29 1004.90 1004.55 1004.22 1003.94 1003.69 1003.48 1003.31 1003.15 1003.00 1002.84 1002.68 1002.49 1002.28 1002.04 1001.77 1001.47 1001.15 1000.80
1005.02 1005.34 1005.71 1006.08 1006.44 1006.75 1007.00 1007.18 1007.30 1007.35 1007.35 1007.32 1007.26 1007.17 1007.07 1006.96 1006.83 1006.67 1006.48 1006.25 1005.98 1005.67 1005.33 1004.96 1004.58 1004.19 1003.81 1003.46 1003.13 1002.83 1002.58 1002.35 1002.16 1001.98 1001.82 1001.66 1001.49 1001.31 1001.11 1000.89 1000.65 1000.38 1000.09 999.78
1004.79 1005.13 1005.50 1005.86 1006.19 1006.46 1006.66 1006.79 1006.84 1006.84 1006.78 1006.68 1006.55 1006.40 1006.24 1006.06 1005.87 1005.65 1005.42 1005.15 1004.86 1004.53 1004.18 1003.81 1003.43 1003.05 1002.68 1002.33 1002.01 1001.71 1001.45 1001.21 1000.99 1000.79 1000.61 1000.43 1000.24 1000.05 999.85 999.64 999.40 999.16 998.89 998.60
1004.84 1005.15 1005.47 1005.78 1006.04 1006.24 1006.38 1006.44 1006.44 1006.37 1006.26 1006.10 1005.91 1005.70 1005.48 1005.24 1004.98 1004.71 1004.42 1004.11 1003.77 1003.42 1003.05 1002.67 1002.29 1001.91 1001.54 1001.19 1000.86 1000.56 1000.28 1000.02 999.78 999.55 999.33 999.11 998.90 998.69 998.47 998.25 998.03 997.80 997.55 997.29
1005.09 1005.32 1005.55 1005.76 1005.93 1006.05 1006.11 1006.10 1006.04 1005.92 1005.76 1005.56 1005.33 1005.07 1004.80 1004.51 1004.20 1003.88 1003.53 1003.17 1002.79 1002.40 1002.00 1001.59 1001.19 1000.80 1000.42 1000.06 999.71 999.38 999.07 998.77 998.49 998.22 997.95 997.70 997.45 997.21 996.98 996.75 996.54 996.32 996.11 995.88
1005.38 1005.49 1005.60 1005.70 1005.76 1005.79 1005.77 1005.71 1005.60 1005.45 1005.26 1005.05 1004.80 1004.52 1004.22 1003.90 1003.55 1003.18 1002.79 1002.38 1001.95 1001.51 1001.07 1000.63 1000.19 999.76 999.35 998.95 998.57 998.20 997.84 997.49 997.15 996.82 996.50 996.20 995.91 995.65 995.40 995.18 994.98 994.79 994.61 994.44
1005.56 1005.54 1005.52 1005.50 1005.46 1005.41 1005.33 1005.23 1005.10 1004.94 1004.76 1004.56 1004.32 1004.05 1003.75 1003.42 1003.05 1002.65 1002.22 1001.77 1001.30 1000.81 1000.32 999.83 999.34 998.86 998.39 997.94 997.50 997.06 996.64 996.23 995.82 995.43 995.06 994.71 994.39 994.10 993.84 993.63 993.45 993.30 993.18 993.07
1005.47 1005.35 1005.23 1005.11 1005.00 1004.90 1004.79 1004.68 1004.56 1004.44 1004.29 1004.13 1003.93 1003.69 1003.42 1003.10 1002.73 1002.32 1001.87 1001.38 1000.87 1000.34 999.80 999.25 998.71 998.17 997.64 997.12 996.61 996.10 995.61 995.12 994.65 994.20 993.77 993.38 993.03 992.73 992.47 992.28 992.13 992.03 991.96 991.92
Thickness
5787 5798 5803 5802 5804 5805 5798 5788 5778 5786 5793 5805 5813 5819 5823 5824 5823 5820 5818 5818 5818 5816 5814 5812 5809 5807 5805 5803 5801 5798 5793 5790 5787 5785 5782 5779 5776 5774 5771 5768 5765 5762 5758 5755
5779 5794 5797 5797 5804 5806 5804 5803 5797 5797 5798 5817 5820 5821 5819 5818 5817 5814 5813 5814 5814 5813 5811 5808 5806 5803 5801 5799 5797 5794 5790 5787 5785 5782 5779 5776 5774 5771 5768 5764 5762 5758 5755 5752
5755 5775 5780 5772 5794 5799 5799 5804 5802 5792 5802 5814 5810 5811 5812 5813 5813 5812 5812 5812 5810 5809 5807 5805 5804 5802 5797 5795 5793 5789 5785 5783 5781 5778 5775 5773 5771 5767 5764 5761 5758 5754 5751 5748
5742 5754 5743 5772 5804 5807 5801 5800 5805 5805 5809 5813 5812 5812 5813 5815 5811 5810 5811 5809 5808 5807 5804 5802 5800 5798 5795 5791 5787 5783 5780 5777 5775 5773 5770 5768 5766 5763 5760 5758 5754 5750 5747 5745
5727 5729 5743 5773 5794 5797 5790 5783 5799 5800 5803 5806 5809 5803 5799 5808 5811 5810 5809 5808 5806 5805 5801 5797 5794 5793 5789 5784 5781 5778 5774 5771 5770 5768 5766 5763 5760 5759 5756 5753 5750 5747 5744 5741
5722 5723 5724 5754 5789 5802 5791 5768 5791 5795 5795 5797 5797 5779 5784 5801 5805 5805 5805 5804 5801 5798 5794 5789 5788 5786 5781 5775 5772 5770 5769 5768 5767 5764 5761 5758 5756 5754 5752 5749 5746 5743 5739 5737
5716 5716 5730 5764 5786 5791 5755 5756 5783 5788 5791 5791 5788 5789 5793 5797 5797 5796 5796 5796 5794 5790 5784 5783 5782 5778 5772 5768 5766 5766 5765 5763 5761 5759 5756 5754 5752 5749 5746 5743 5739 5736 5734 5732
5708 5706 5721 5764 5773 5761 5758 5774 5778 5780 5784 5784 5786 5789 5788 5788 5787 5786 5785 5784 5783 5780 5777 5776 5775 5770 5764 5760 5761 5760 5757 5755 5753 5752 5751 5749 5745 5742 5740 5736 5732 5729 5726 5724
5715 5720 5742 5758 5762 5767 5769 5768 5771 5773 5775 5777 5776 5775 5776 5776 5776 5776 5775 5774 5774 5771 5768 5767 5765 5762 5756 5754 5754 5751 5748 5746 5746 5745 5743 5742 5738 5735 5732 5729 5724 5721 5718 5716
5716 5727 5740 5749 5756 5760 5763 5764 5766 5768 5768 5767 5765 5764 5763 5763 5764 5764 5765 5764 5763 5760 5757 5755 5755 5753 5751 5748 5746 5743 5739 5738 5737 5736 5734 5733 5731 5728 5724 5721 5717 5714 5711 5708
5709 5721 5731 5738 5745 5750 5754 5757 5758 5758 5758 5757 5756 5753 5752 5751 5752 5753 5754 5753 5752 5750 5747 5745 5745 5744 5742 5740 5738 5734 5731 5730 5729 5728 5727 5724 5723 5721 5719 5716 5713 5708 5705 5703
5702 5717 5720 5726 5738 5744 5744 5745 5746 5746 5744 5745 5746 5745 5744 5743 5744 5744 5743 5742 5741 5739 5738 5736 5735 5734 5733 5732 5730 5726 5722 5721 5720 5719 5717 5716 5713 5712 5712 5709 5707 5704 5702 5698
5715 5722 5724 5728 5732 5737 5736 5738 5739 5738 5735 5733 5735 5737 5736 5733 5734 5734 5733 5732 5730 5729 5728 5727 5725 5724 5724 5723 5721 5717 5714 5712 5711 5710 5708 5707 5705 5702 5699 5699 5698 5696 5693 5690
5716 5717 5714 5719 5721 5726 5727 5728 5728 5727 5726 5725 5724 5725 5724 5723 5722 5722 5722 5722 5722 5720 5719 5718 5716 5714 5715 5714 5711 5708 5706 5705 5703 5701 5700 5698 5696 5694 5691 5687 5684 5683 5683 5680
5708 5711 5710 5713 5714 5715 5717 5716 5713 5712 5713 5713 5714 5713 5712 5711 5710 5710 5712 5713 5712 5710 5709 5707 5706 5705 5705 5704 5702 5699 5697 5695 5694 5692 5691 5688 5687 5684 5681 5678 5675 5673 5671 5670
5696 5700 5702 5702 5702 5704 5705 5704 5702 5701 5702 5702 5701 5701 5701 5702 5700 5699 5701 5702 5699 5698 5698 5698 5696 5696 5696 5694 5692 5691 5689 5688 5685 5682 5680 5678 5675 5672 5670 5667 5665 5663 5661 5659
5683 5683 5687 5689 5691 5692 5693 5694 5694 5693 5693 5692 5692 5692 5692 5690 5688 5687 5689 5692 5692 5691 5690 5689 5688 5688 5687 5685 5683 5681 5679 5678 5676 5673 5670 5667 5665 5662 5660 5657 5655 5653 5652 5651
5680 5681 5682 5683 5683 5683 5683 5685 5685 5684 5683 5684 5684 5683 5681 5679 5678 5678 5681 5682 5681 5681 5681 5681 5681 5679 5677 5676 5673 5671 5668 5666 5664 5662 5660 5657 5655 5654 5652 5649 5647 5645 5643 5642
5675 5675 5675 5675 5675 5674 5674 5674 5674 5675 5675 5674 5673 5673 5672 5672 5672 5672 5672 5672 5671 5670 5671 5672 5671 5669 5667 5665 5664 5661 5659 5656 5654 5652 5650 5648 5645 5644 5643 5641 5639 5636 5634 5632
5667 5668 5668 5667 5666 5665 5665 5666 5666 5665 5665 5665 5664 5664 5664 5664 5665 5663 5663 5662 5663 5664 5664 5663 5661 5659 5658 5656 5655 5652 5649 5647 5644 5642 5640 5638 5636 5634 5634 5632 5629 5627 5625 5623
5658 5659 5659 5657 5656 5657 5659 5659 5658 5657 5657 5657 5656 5656 5656 5656 5656 5655 5653 5651 5654 5655 5655 5654 5652 5650 5648 5647 5645 5643 5640 5638 5635 5632 5630 5628 5627 5625 5624 5622 5620 5617 5615 5613
5649 5650 5651 5650 5649 5649 5651 5652 5652 5651 5651 5650 5650 5649 5648 5647 5648 5647 5645 5644 5646 5647 5646 5644 5642 5641 5640 5638 5636 5634 5631 5629 5626 5624 5622 5620 5617 5616 5614 5612 5610 5608 5606 5604
5640 5642 5642 5642 5642 5641 5643 5644 5644 5644 5644 5643 5642 5641 5641 5640 5640 5638 5636 5639 5640 5639 5637 5635 5634 5633 5632 5630 5627 5625 5623 5620 5618 5616 5613 5611 5608 5606 5604 5603 5601 5598 5596 5594
5632 5633 5634 5635 5635 5634 5633 5634 5635 5636 5636 5636 5636 5636 5635 5634 5633 5633 5633 5632 5631 5630 5628 5627 5626 5624 5622 5620 5618 5615 5613 5611 5609 5607 5604 5602 5600 5598 5596 5594 5591 5589 5586 5584
5626 5626 5628 5628 5627 5626 5626 5627 5627 5627 5627 5627 5628 5628 5628 5628 5626 5625 5624 5623 5622 5621 5620 5618 5617 5615 5613 5611 5608 5606 5604 5602 5600 5598 5596 5593 5591 5588 5586 5584 5581 5579 5577 5575
5620 5620 5621 5621 5621 5621 5621 5621 5619 5619 5619 5618 5619 5620 5620 5620 5619 5618 5616 5615 5614 5612 5610 5609 5608 5607 5604 5602 5600 5598 5595 5593 5591 5589 5586 5584 5581 5578 5576 5574 5573 5571 5569 5566
5614 5614 5614 5615 5615 5616 5615 5615 5614 5613 5613 5613 5612 5613 5613 5612 5612 5611 5609 5607 5605 5603 5601 5600 5599 5598 5596 5593 5591 5589 5586 5585 5583 5580 5578 5575 5573 5571 5568 5567 5565 5563 5561 5559